2014-11-09 00:03:21 r, 16.46m,0000000023Hz,0000020026c,0000000.043s, 011.6C,00002195
2014-11-09 00:13:21 r, 16.29m,0000000026Hz,0000017270c,0000000.037s, 011.6C,00002195
2014-11-09 00:23:21 r, 16.20m,0000000030Hz,0000015720c,0000000.034s, 011.6C,00002195
2014-11-09 00:33:21 r, 16.08m,0000000033Hz,0000014097c,0000000.031s, 011.6C,00002195
2014-11-09 00:43:21 r, 16.00m,0000000036Hz,0000013121c,0000000.028s, 011.6C,00002195
2014-11-09 00:53:21 r, 15.94m,0000000038Hz,0000012338c,0000000.027s, 011.6C,00002195
2014-11-09 01:03:21 r, 15.88m,0000000039Hz,0000011733c,0000000.025s, 011.2C,00002195
2014-11-09 01:13:21 r, 15.78m,0000000043Hz,0000010713c,0000000.023s, 011.2C,00002195
2014-11-09 01:23:21 r, 15.65m,0000000048Hz,0000009523c,0000000.021s, 011.2C,00002195
2014-11-09 01:33:21 r, 15.55m,0000000053Hz,0000008673c,0000000.019s, 011.2C,00002195
2014-11-09 01:43:21 r, 15.53m,0000000054Hz,0000008459c,0000000.018s, 011.2C,00002195
2014-11-09 01:53:21 r, 15.50m,0000000056Hz,0000008205c,0000000.018s, 010.9C,00002195
2014-11-09 02:03:21 r, 15.45m,0000000059Hz,0000007868c,0000000.017s, 010.9C,00002195
2014-11-09 02:13:21 r, 15.43m,0000000059Hz,0000007773c,0000000.017s, 010.9C,00002195
2014-11-09 02:23:21 r, 15.36m,0000000059Hz,0000007275c,0000000.016s, 010.6C,00002195
2014-11-09 02:33:21 r, 15.55m,0000000053Hz,0000008694c,0000000.019s, 010.6C,00002195
2014-11-09 02:43:21 r, 15.94m,0000000038Hz,0000012459c,0000000.027s, 010.6C,00002195
2014-11-09 02:53:21 r, 15.66m,0000000047Hz,0000009581c,0000000.021s, 010.9C,00002195
2014-11-09 03:03:21 r, 15.67m,0000000048Hz,0000009607c,0000000.021s, 010.9C,00002195
2014-11-09 03:13:21 r, 15.62m,0000000049Hz,0000009217c,0000000.020s, 011.2C,00002195
2014-11-09 03:23:21 r, 15.55m,0000000053Hz,0000008642c,0000000.019s, 011.2C,00002195
2014-11-09 03:33:21 r, 15.50m,0000000056Hz,0000008214c,0000000.018s, 011.2C,00002195
2014-11-09 03:43:21 r, 15.51m,0000000055Hz,0000008349c,0000000.018s, 011.2C,00002195
2014-11-09 03:53:21 r, 15.61m,0000000050Hz,0000009163c,0000000.020s, 011.6C,00002195
2014-11-09 04:03:21 r, 15.61m,0000000051Hz,0000009175c,0000000.020s, 011.6C,00002195
2014-11-09 04:13:21 r, 15.63m,0000000049Hz,0000009299c,0000000.020s, 011.6C,00002195
2014-11-09 04:23:21 r, 15.71m,0000000046Hz,0000010036c,0000000.022s, 011.6C,00002195
2014-11-09 04:33:21 r, 15.81m,0000000042Hz,0000010998c,0000000.024s, 011.6C,00002195
2014-11-09 04:43:21 r, 15.60m,0000000051Hz,0000009071c,0000000.020s, 011.6C,00002195
2014-11-09 04:53:21 r, 15.44m,0000000059Hz,0000007802c,0000000.017s, 011.6C,00002195
2014-11-09 05:03:21 r, 15.46m,0000000058Hz,0000007943c,0000000.017s, 011.6C,00002195
2014-11-09 05:13:21 r, 15.57m,0000000052Hz,0000008832c,0000000.019s, 011.6C,00002195
2014-11-09 05:23:21 r, 15.57m,0000000052Hz,0000008826c,0000000.019s, 011.6C,00002195
2014-11-09 05:33:21 r, 15.64m,0000000049Hz,0000009409c,0000000.020s, 011.6C,00002195
2014-11-09 05:43:21 r, 15.67m,0000000047Hz,0000009693c,0000000.021s, 011.6C,00002195
2014-11-09 05:53:21 r, 15.64m,0000000049Hz,0000009452c,0000000.021s, 011.6C,00002195
2014-11-09 06:03:21 r, 15.53m,0000000053Hz,0000008471c,0000000.018s, 011.6C,00002195
2014-11-09 06:13:21 r, 15.45m,0000000058Hz,0000007891c,0000000.017s, 011.6C,00002195
2014-11-09 06:23:21 r, 15.45m,0000000058Hz,0000007919c,0000000.017s, 011.6C,00002195
2014-11-09 06:33:21 r, 15.30m,0000000067Hz,0000006866c,0000000.015s, 011.6C,00002195
2014-11-09 06:43:21 r, 14.81m,0000000103Hz,0000004411c,0000000.010s, 011.6C,00002195
2014-11-09 06:53:21 r, 13.60m,0000000324Hz,0000000000c,0000000.000s, 011.6C,00002195
2014-11-09 07:03:21 r, 11.82m,0000001656Hz,0000000000c,0000000.000s, 011.6C,00002195
2014-11-09 07:13:21 r, 10.05m,0000008488Hz,0000000000c,0000000.000s, 011.6C,00002195
2014-11-09 07:23:21 r, 08.60m,0000032403Hz,0000000000c,0000000.000s, 011.6C,00002195
2014-11-09 07:33:21 r, 07.69m,0000075143Hz,0000000000c,0000000.000s, 011.9C,00002195
2014-11-09 07:43:21 r, 06.86m,0000161008Hz,0000000000c,0000000.000s, 011.6C,00002195
2014-11-09 07:53:21 r, 06.25m,0000281361Hz,0000000000c,0000000.000s, 011.6C,00002195
2014-11-09 08:03:21 r, 05.88m,0000397263Hz,0000000000c,0000000.000s, 011.6C,00002195
2014-11-09 08:13:21 r, 00.00m,0000562253Hz,0000000000c,0000000.000s, 011.6C,00002195
2014-11-09 08:23:21 r, 00.00m,0000562176Hz,0000000000c,0000000.000s, 011.9C,00002195
2014-11-09 08:33:21 r, 00.00m,0000562101Hz,0000000000c,0000000.000s, 011.9C,00002195
2014-11-09 08:43:21 r, 00.00m,0000562206Hz,0000000000c,0000000.000s, 011.9C,00002195
2014-11-09 08:53:21 r, 00.00m,0000562153Hz,0000000000c,0000000.000s, 011.9C,00002195
2014-11-09 09:03:21 r, 00.00m,0000562266Hz,0000000000c,0000000.000s, 012.2C,00002195
2014-11-09 09:13:21 r, 00.00m,0000562229Hz,0000000000c,0000000.000s, 012.2C,00002195
2014-11-09 09:23:21 r, 00.00m,0000562362Hz,0000000000c,0000000.000s, 012.5C,00002195
2014-11-09 09:33:21 r, 00.00m,0000562481Hz,0000000000c,0000000.000s, 012.5C,00002195
2014-11-09 09:43:21 r, 00.00m,0000562407Hz,0000000000c,0000000.000s, 012.8C,00002195
2014-11-09 09:53:21 r, 00.00m,0000562385Hz,0000000000c,0000000.000s, 012.8C,00002195
2014-11-09 10:03:21 r, 00.00m,0000562393Hz,0000000000c,0000000.000s, 012.8C,00002195
2014-11-09 10:13:21 r, 00.00m,0000562564Hz,0000000000c,0000000.000s, 013.2C,00002195
2014-11-09 10:23:21 r, 00.00m,0000562531Hz,0000000000c,0000000.000s, 013.5C,00002195
2014-11-09 10:33:21 r, 00.00m,0000562552Hz,0000000000c,0000000.000s, 013.5C,00002195
2014-11-09 10:43:21 r, 00.00m,0000562518Hz,0000000000c,0000000.000s, 013.5C,00002195
2014-11-09 10:53:21 r, 00.00m,0000562575Hz,0000000000c,0000000.000s, 013.8C,00002195
2014-11-09 11:03:21 r, 00.00m,0000562604Hz,0000000000c,0000000.000s, 013.8C,00002195
2014-11-09 11:13:21 r, 00.00m,0000562585Hz,0000000000c,0000000.000s, 014.1C,00002195
2014-11-09 11:23:21 r, 00.00m,0000562605Hz,0000000000c,0000000.000s, 014.1C,00002195
2014-11-09 11:33:21 r, 00.00m,0000562613Hz,0000000000c,0000000.000s, 014.1C,00002195
2014-11-09 11:43:21 r, 00.00m,0000562617Hz,0000000000c,0000000.000s, 014.8C,00002195
2014-11-09 11:53:21 r, 00.00m,0000562729Hz,0000000000c,0000000.000s, 014.8C,00002195
2014-11-09 12:03:21 r, 00.00m,0000562707Hz,0000000000c,0000000.000s, 014.8C,00002195
2014-11-09 12:13:21 r, 00.00m,0000562710Hz,0000000000c,0000000.000s, 014.8C,00002195
2014-11-09 12:23:21 r, 00.00m,0000562754Hz,0000000000c,0000000.000s, 015.1C,00002195
2014-11-09 12:33:21 r, 00.00m,0000562813Hz,0000000000c,0000000.000s, 015.4C,00002195
2014-11-09 12:43:21 r, 00.00m,0000562955Hz,0000000000c,0000000.000s, 015.7C,00002195
2014-11-09 12:53:21 r, 00.00m,0000562949Hz,0000000000c,0000000.000s, 016.1C,00002195
2014-11-09 13:03:21 r, 00.00m,0000562934Hz,0000000000c,0000000.000s, 016.1C,00002195
2014-11-09 13:13:21 r, 00.00m,0000562887Hz,0000000000c,0000000.000s, 016.1C,00002195
2014-11-09 13:23:21 r, 00.00m,0000562946Hz,0000000000c,0000000.000s, 016.1C,00002195
2014-11-09 13:33:21 r, 00.00m,0000562858Hz,0000000000c,0000000.000s, 015.7C,00002195
2014-11-09 13:43:21 r, 00.00m,0000562809Hz,0000000000c,0000000.000s, 015.7C,00002195
2014-11-09 13:53:21 r, 00.00m,0000562774Hz,0000000000c,0000000.000s, 015.4C,00002195
2014-11-09 14:03:21 r, 00.00m,0000562731Hz,0000000000c,0000000.000s, 015.7C,00002195
2014-11-09 14:13:21 r, 00.00m,0000562748Hz,0000000000c,0000000.000s, 015.4C,00002195
2014-11-09 14:23:21 r, 00.00m,0000562755Hz,0000000000c,0000000.000s, 015.1C,00002195
2014-11-09 14:33:21 r, 00.00m,0000562728Hz,0000000000c,0000000.000s, 015.1C,00002195
2014-11-09 14:43:21 r, 00.00m,0000562783Hz,0000000000c,0000000.000s, 015.1C,00002195
2014-11-09 14:53:21 r, 00.00m,0000562726Hz,0000000000c,0000000.000s, 014.8C,00002195
2014-11-09 15:03:21 r, 00.00m,0000562716Hz,0000000000c,0000000.000s, 014.5C,00002195
2014-11-09 15:13:21 r, 00.00m,0000562543Hz,0000000000c,0000000.000s, 014.1C,00002195
2014-11-09 15:23:21 r, 00.00m,0000562420Hz,0000000000c,0000000.000s, 013.8C,00002195
2014-11-09 15:33:21 r, 00.00m,0000562494Hz,0000000000c,0000000.000s, 013.8C,00002195
2014-11-09 15:43:21 r, 00.00m,0000562414Hz,0000000000c,0000000.000s, 013.5C,00002195
2014-11-09 15:53:21 r, 00.00m,0000562399Hz,0000000000c,0000000.000s, 012.8C,00002195
2014-11-09 16:03:21 r, 00.00m,0000562383Hz,0000000000c,0000000.000s, 012.5C,00002195
2014-11-09 16:13:21 r, 00.00m,0000411511Hz,0000000000c,0000000.000s, 012.2C,00002195
2014-11-09 16:23:21 r, 06.18m,0000301605Hz,0000000000c,0000000.000s, 011.9C,00002195
2014-11-09 16:33:21 r, 06.56m,0000211687Hz,0000000000c,0000000.000s, 011.9C,00002195
2014-11-09 16:43:21 r, 07.02m,0000138667Hz,0000000000c,0000000.000s, 011.9C,00002195
2014-11-09 16:53:21 r, 07.76m,0000070176Hz,0000000000c,0000000.000s, 011.6C,00002195
2014-11-09 17:03:21 r, 08.84m,0000025869Hz,0000000000c,0000000.000s, 011.2C,00002195
2014-11-09 17:13:21 r, 10.40m,0000006118Hz,0000000000c,0000000.000s, 011.2C,00002195
2014-11-09 17:23:21 r, 12.39m,0000000986Hz,0000000000c,0000000.000s, 011.2C,00002195
2014-11-09 17:33:21 r, 14.48m,0000000143Hz,0000000000c,0000000.000s, 011.2C,00002195
2014-11-09 17:43:21 r, 16.25m,0000000028Hz,0000016410c,0000000.036s, 011.2C,00002195
2014-11-09 17:53:21 r, 17.36m,0000000010Hz,0000045603c,0000000.099s, 011.2C,00002195
2014-11-09 18:03:21 r, 17.76m,0000000007Hz,0000066382c,0000000.144s, 010.9C,00002195
2014-11-09 18:13:21 r, 18.19m,0000000005Hz,0000097900c,0000000.212s, 010.9C,00002195
2014-11-09 18:23:21 r, 18.22m,0000000005Hz,0000100688c,0000000.219s, 010.9C,00002195
2014-11-09 18:33:21 r, 18.23m,0000000005Hz,0000101042c,0000000.219s, 010.9C,00002195
2014-11-09 18:43:21 r, 17.95m,0000000006Hz,0000078883c,0000000.171s, 010.9C,00002195
2014-11-09 18:53:21 r, 17.61m,0000000007Hz,0000057596c,0000000.125s, 010.9C,00002195
2014-11-09 19:03:21 r, 17.94m,0000000005Hz,0000078635c,0000000.171s, 011.2C,00002195
2014-11-09 19:13:21 r, 17.83m,0000000007Hz,0000070705c,0000000.153s, 011.2C,00002195
2014-11-09 19:23:21 r, 17.57m,0000000008Hz,0000055768c,0000000.121s, 011.2C,00002195
2014-11-09 19:33:21 r, 17.58m,0000000008Hz,0000055905c,0000000.121s, 011.2C,00002195
2014-11-09 19:43:21 r, 17.68m,0000000008Hz,0000061450c,0000000.133s, 011.2C,00002195
2014-11-09 19:53:21 r, 17.97m,0000000006Hz,0000080578c,0000000.175s, 011.2C,00002195
2014-11-09 20:03:21 r, 17.88m,0000000007Hz,0000074036c,0000000.161s, 011.2C,00002195
2014-11-09 20:13:21 r, 17.89m,0000000006Hz,0000074695c,0000000.162s, 011.2C,00002195
2014-11-09 20:23:21 r, 17.96m,0000000005Hz,0000079789c,0000000.173s, 010.9C,00002195
2014-11-09 20:33:21 r, 17.74m,0000000007Hz,0000064569c,0000000.140s, 010.9C,00002195
2014-11-09 20:43:21 r, 17.59m,0000000008Hz,0000056346c,0000000.122s, 010.9C,00002195
2014-11-09 20:53:21 r, 17.51m,0000000009Hz,0000052621c,0000000.114s, 010.9C,00002195
2014-11-09 21:03:21 r, 17.68m,0000000008Hz,0000061494c,0000000.133s, 010.6C,00002195
2014-11-09 21:13:21 r, 17.83m,0000000006Hz,0000070928c,0000000.154s, 010.6C,00002195
2014-11-09 21:23:21 r, 17.87m,0000000007Hz,0000073040c,0000000.159s, 010.3C,00002195
2014-11-09 21:33:21 r, 17.79m,0000000007Hz,0000067923c,0000000.147s, 010.3C,00002195
2014-11-09 21:43:21 r, 17.36m,0000000011Hz,0000045613c,0000000.099s, 010.3C,00002195
2014-11-09 21:53:21 r, 17.28m,0000000011Hz,0000042515c,0000000.092s, 009.9C,00002195
2014-11-09 22:03:21 r, 17.09m,0000000013Hz,0000035969c,0000000.078s, 009.9C,00002195
2014-11-09 22:13:21 r, 17.19m,0000000012Hz,0000038993c,0000000.085s, 010.3C,00002195
2014-11-09 22:23:21 r, 17.36m,0000000010Hz,0000046021c,0000000.100s, 010.3C,00002195
2014-11-09 22:33:21 r, 17.20m,0000000011Hz,0000039552c,0000000.086s, 010.3C,00002195
2014-11-09 22:43:21 r, 15.91m,0000000038Hz,0000011977c,0000000.026s, 010.3C,00002195
2014-11-09 22:53:21 r, 15.77m,0000000043Hz,0000010674c,0000000.023s, 010.6C,00002195
2014-11-09 23:03:21 r, 15.87m,0000000039Hz,0000011628c,0000000.025s, 010.9C,00002195
2014-11-09 23:13:21 r, 15.83m,0000000041Hz,0000011182c,0000000.024s, 010.9C,00002195
2014-11-09 23:23:21 r, 16.09m,0000000032Hz,0000014183c,0000000.031s, 011.2C,00002195
2014-11-09 23:33:21 r, 15.89m,0000000038Hz,0000011856c,0000000.026s, 011.2C,00002195
2014-11-09 23:43:21 r, 16.02m,0000000035Hz,0000013284c,0000000.029s, 011.2C,00002195
2014-11-09 23:53:21 r, 15.97m,0000000036Hz,0000012718c,0000000.028s, 010.9C,00002195
